[[{"header":{"parameterUnit":"m.s-1","parameterCategory":1,"la1":30.2991,"la2":30.254,"lo1":-89.0895,"lo2":-89.0444,"dy":0.0017,"dx":0.0017,"nx":28,"ny":28,"refTime":"2024-03-30T03:00:00:Z","depth":0,"parameterNumber":2,"parameterNumberName":"U-component_of_WINDS"},"data":[0,0,0,0,0,0,0,0,0,0,0,0,0,0,0,0,0,0,0,0,0,0,0,0,0,0,0,0,0,0,0,0,0,0,0,0,0,0,0,0,0,0,0,0,0,0,0,0,0,0,0,0,0,0,0,0,0,0,-1.0889,-1.0888,0,-1.0819,-1.0819,-1.0818,-1.0773,-1.0773,-1.0772,-1.0772,-1.0696,-1.0695,-1.0693,0,0,0,0,0,0,0,0,0,0,0,0,0,-1.0979,-1.0977,-1.0889,-1.0888,-1.0887,-1.0819,-1.0818,-1.0818,-1.0773,-1.0773,-1.0772,-1.0772,-1.0697,-1.0695,-1.0693,0,0,0,0,0,0,0,0,0,0,0,0,0,-1.0927,-1.0977,-1.0889,-1.0857,-1.0853,-1.082,-1.0818,-1.0817,-1.0773,-1.0773,-1.0772,-1.0772,-1.0698,-1.0695,-1.0692,-1.0684,0,0,-1.0684,-1.0683,0,0,0,0,0,0,0,0,-1.093,-1.0924,-1.0862,-1.0859,-1.0855,-1.0805,-1.0822,-1.0772,-1.0773,-1.0803,-1.0772,-1.0772,-1.0732,-1.0727,-1.0715,-1.068,-1.0677,-1.0684,-1.0682,-1.0681,-1.0681,0,0,0,0,0,0,0,-1.0934,-1.0927,-1.0861,-1.0861,-1.0857,-1.0845,-1.0837,-1.0813,-1.0771,-1.0801,-1.0797,-1.079,-1.073,-1.0717,-1.0712,-1.0676,-1.0684,-1.0682,-1.068,-1.0679,-1.0631,-1.0632,0,0,0,0,0,0,-1.0943,-1.093,-1.0863,-1.0859,-1.0893,-1.0843,-1.0835,-1.0821,-1.0771,-1.0763,-1.079,-1.0788,-1.0722,-1.0716,-1.071,-1.0696,-1.0681,-1.0679,-1.0677,-1.0631,-1.0631,-1.0632,0,0,0,0,0,0,-1.0945,-1.0938,-1.0866,-1.0894,-1.0884,-1.0842,-1.0827,-1.082,-1.0807,-1.0763,-1.0755,-1.0785,-1.0721,-1.0713,-1.0691,-1.0693,-1.0678,-1.0675,-1.0631,-1.0631,-1.0632,-1.0669,0,0,0,0,0,0,-1.0948,-1.0939,-1.0936,-1.0894,-1.0882,-1.085,-1.0827,-1.0819,-1.0803,-1.0799,-1.0756,-1.0748,-1.072,-1.0695,-1.0688,-1.0689,-1.0673,-1.063,-1.0631,-1.0631,-1.0667,-1.067,-1.0673,0,0,0,0,0,-1.0952,-1.0948,-1.0936,-1.0928,-1.0878,-1.085,-1.0843,-1.0812,-1.0803,-1.0799,-1.0772,-1.075,-1.0694,-1.0693,-1.0685,-1.0685,-1.063,-1.0631,-1.0631,-1.0666,-1.067,-1.0673,0,0,0,0,0,0,-1.0989,-1.0942,-1.0928,-1.0911,-1.0885,-1.0843,-1.0836,-1.0818,-1.0792,-1.079,-1.0752,-1.0742,-1.0724,-1.0702,-1.0702,-1.0674,-1.0659,-1.0659,-1.0688,-1.0692,-1.0695,-1.0699,-1.0671,0,0,0,0,0,-1.0996,-1.0978,-1.0937,-1.0926,-1.0914,-1.0878,-1.0865,-1.0844,-1.0814,-1.0803,-1.0773,-1.0744,-1.072,-1.0705,-1.0681,-1.0665,-1.0654,-1.066,-1.0663,-1.0666,-1.0665,-1.0655,-1.0657,-1.0634,-1.0634,-1.0634,0,0,-1.1008,-1.0981,-1.0971,-1.0933,-1.0911,-1.0892,-1.0869,-1.085,-1.0836,-1.0799,-1.0776,-1.0754,-1.072,-1.07,-1.069,-1.0682,-1.067,-1.0667,-1.067,-1.0667,-1.0656,-1.0658,-1.066,-1.0635,-1.0635,-1.0634,0,0,-1.1022,-1.1,-1.0988,-1.0967,-1.0934,-1.091,-1.0907,-1.0868,-1.0852,-1.0829,-1.0802,-1.0783,-1.0743,-1.072,-1.0702,-1.0709,-1.0688,-1.0703,-1.0718,-1.0708,-1.071,-1.0711,-1.0712,-1.0714,-1.0702,-1.0702,-1.0702,0,-1.1041,-1.1014,-1.0984,-1.0967,-1.0951,-1.092,-1.0907,-1.0887,-1.0847,-1.0836,-1.0828,-1.0777,-1.0751,-1.0726,-1.0728,-1.0716,-1.071,-1.0706,-1.0712,-1.0713,-1.0714,-1.0715,-1.0716,-1.0704,-1.0704,-1.0704,-1.0703,0,-1.1039,-1.102,-1.1015,-1.0979,-1.0962,-1.0947,-1.0915,-1.0901,-1.0882,-1.0859,-1.0836,-1.0805,-1.0773,-1.0766,-1.0747,-1.0738,-1.0734,-1.072,-1.0704,-1.0719,-1.0719,-1.0719,-1.0707,-1.0706,-1.0706,-1.0705,0,0,-1.1072,-1.1022,-1.102,-1.1003,-1.0965,-1.095,-1.0934,-1.0905,-1.0894,-1.0868,-1.0852,-1.082,-1.0807,-1.0787,-1.0765,-1.0757,-1.0764,-1.0743,-1.0742,-1.0747,-1.0751,-1.0761,-1.0762,-1.075,-1.075,-1.075,-1.0754,0,-1.1079,-1.105,-1.1023,-1.1003,-1.0985,-1.0956,-1.0942,-1.0916,-1.0895,-1.0875,-1.0851,-1.0828,-1.0813,-1.0801,-1.0792,-1.0765,-1.0764,-1.0764,-1.0734,-1.0733,-1.0742,-1.0763,-1.0773,-1.0778,-1.0754,-1.0754,-1.0754,0,-1.1082,-1.106,-1.1038,-1.1003,-1.0994,-1.0982,-1.0954,-1.0936,-1.0907,-1.0892,-1.0871,-1.0849,-1.0829,-1.0818,-1.079,-1.0791,-1.0777,-1.0762,-1.0762,-1.0756,-1.0743,-1.0756,-1.0779,-1.0779,-1.0754,-1.0754,-1.0754,0,-1.1107,-1.1071,-1.1054,-1.1041,-1.0999,-1.0991,-1.0973,-1.0944,-1.0928,-1.0904,-1.0893,-1.0866,-1.0851,-1.083,-1.08,-1.0794,-1.0775,-1.0761,-1.076,-1.0761,-1.0756,-1.0756,-1.0775,-1.075,-1.075,-1.075,-1.075,0,-1.1117,-1.1104,-1.1065,-1.1054,-1.1039,-1.1009,-1.0994,-1.0974,-1.0948,-1.0932,-1.0905,-1.089,-1.0853,-1.0833,-1.0809,-1.079,-1.0783,-1.0769,-1.0763,-1.0771,-1.0772,-1.0759,-1.0758,-1.075,-1.075,-1.075,-1.075,0,-1.1141,-1.1114,-1.1093,-1.1056,-1.1047,-1.1038,-1.1005,-1.0993,-1.0971,-1.0951,-1.0944,-1.0909,-1.0884,-1.0853,-1.0819,-1.0803,-1.0785,-1.0776,-1.0795,-1.0791,-1.0792,-1.0792,-1.0802,-1.0801,-1.0779,-1.0779,-1.0779,0,-1.1148,-1.1138,-1.1101,-1.1089,-1.1073,-1.1054,-1.1039,-1.1009,-1.0994,-1.096,-1.0952,-1.0926,-1.0903,-1.0865,-1.0836,-1.0809,-1.0798,-1.0804,-1.0794,-1.0802,-1.0797,-1.0797,-1.0795,-1.0805,-1.0806,-1.0806,-1.0806,0,-1.1163,-1.1151,-1.1131,-1.1106,-1.1089,-1.1068,-1.1045,-1.1037,-1.1002,-1.0986,-1.0962,-1.0945,-1.0911,-1.0884,-1.0854,-1.0834,-1.0814,-1.081,-1.0809,-1.0815,-1.0827,-1.0819,-1.08,-1.081,-1.0809,-1.0809,-1.0809,-1.0809,-1.1178,-1.1168,-1.1141,-1.1119,-1.11,-1.108,-1.1067,-1.1044,-1.1023,-1.0994,-1.0978,-1.0954,-1.0925,-1.0882,-1.0864,-1.0844,-1.0836,-1.0834,-1.0833,-1.0832,-1.0834,-1.0832,-1.0838,-1.0838,-1.0838,-1.0838,-1.0838,0,-1.119,-1.1172,-1.1153,-1.1123,-1.1106,-1.1092,-1.1066,-1.1052,-1.1032,-1.1008,-1.0987,-1.0959,-1.0934,-1.0903,-1.0876,-1.0866,-1.0856,-1.086,-1.0859,-1.0855,-1.0843,-1.0847,-1.0868,-1.0868,-1.0868,-1.0868,-1.0868,-1.0868,-1.1195,-1.1177,-1.1162,-1.1134,-1.1115,-1.1092,-1.1079,-1.106,-1.1041,-1.1011,-1.0991,-1.0972,-1.0945,-1.0916,-1.0892,-1.0884,-1.0874,-1.088,-1.0869,-1.0858,-1.0855,-1.0853,-1.0856,-1.0879,-1.0879,-1.0882,-1.0882,-1.0882]},{"header":{"parameterUnit":"m.s-1","parameterCategory":1,"la1":30.2991,"la2":30.254,"lo1":-89.0895,"lo2":-89.0444,"dy":0.0017,"dx":0.0017,"nx":28,"ny":28,"refTime":"2024-03-30T03:00:00:Z","depth":0,"parameterNumber":3,"parameterNumberName":"V-component_of_WINDS"},"data":[0,0,0,0,0,0,0,0,0,0,0,0,0,0,0,0,0,0,0,0,0,0,0,0,0,0,0,0,0,0,0,0,0,0,0,0,0,0,0,0,0,0,0,0,0,0,0,0,0,0,0,0,0,0,0,0,0,0,1.854,1.8541,0,1.8696,1.8697,1.8699,1.8795,1.8796,1.8796,1.8797,1.896,1.8963,1.8967,0,0,0,0,0,0,0,0,0,0,0,0,0,1.833,1.8333,1.854,1.8541,1.8543,1.8695,1.8697,1.87,1.8795,1.8796,1.8797,1.8797,1.8958,1.8963,1.8967,0,0,0,0,0,0,0,0,0,0,0,0,0,1.8447,1.8334,1.8539,1.8609,1.8617,1.8695,1.8698,1.87,1.8795,1.8796,1.8797,1.8797,1.8957,1.8962,1.8968,1.8989,0,0,1.8986,1.8988,0,0,0,0,0,0,0,0,1.844,1.8454,1.8597,1.8605,1.8614,1.8727,1.8683,1.8797,1.8795,1.8728,1.8797,1.8798,1.8882,1.8894,1.8921,1.8996,1.9003,1.8986,1.899,1.8992,1.8994,0,0,0,0,0,0,0,1.8432,1.8448,1.8601,1.8599,1.8609,1.8635,1.8652,1.8705,1.8799,1.8734,1.8741,1.8758,1.8886,1.8916,1.8926,1.9006,1.8986,1.8991,1.8995,1.8997,1.9109,1.9109,0,0,0,0,0,0,1.8412,1.8441,1.8596,1.8606,1.8527,1.8638,1.8658,1.869,1.8798,1.8816,1.8757,1.8762,1.8905,1.8919,1.8932,1.8966,1.8992,1.8998,1.9001,1.911,1.9109,1.9108,0,0,0,0,0,0,1.8407,1.8425,1.859,1.8526,1.8549,1.8641,1.8676,1.8692,1.8722,1.8816,1.8834,1.877,1.8906,1.8924,1.8975,1.8973,1.9,1.9006,1.911,1.9109,1.9109,1.9032,0,0,0,0,0,0,1.8401,1.8423,1.843,1.8525,1.8552,1.8628,1.8676,1.8695,1.8731,1.8739,1.8832,1.8849,1.8908,1.8965,1.898,1.8981,1.901,1.9111,1.911,1.9109,1.9035,1.9028,1.9023,0,0,0,0,0,1.8393,1.8402,1.843,1.8448,1.8563,1.8628,1.8644,1.8711,1.873,1.874,1.8801,1.8846,1.897,1.897,1.8987,1.899,1.9111,1.911,1.9109,1.9038,1.903,1.9023,0,0,0,0,0,0,1.8305,1.8416,1.8448,1.8488,1.8548,1.8644,1.8658,1.87,1.8757,1.8762,1.8844,1.8865,1.8908,1.8954,1.8951,1.9017,1.9046,1.9048,1.8986,1.8979,1.8973,1.8962,1.9015,0,0,0,0,0,1.829,1.8333,1.8428,1.8454,1.8482,1.8565,1.8596,1.8643,1.8709,1.8735,1.8799,1.8863,1.8917,1.895,1.9004,1.9042,1.9065,1.9052,1.9046,1.9041,1.9043,1.9069,1.9065,1.9105,1.9105,1.9105,0,0,1.8261,1.8326,1.8348,1.8438,1.849,1.8534,1.8585,1.8629,1.8664,1.8742,1.8794,1.8844,1.892,1.8964,1.8987,1.9004,1.9037,1.904,1.9035,1.9039,1.9067,1.9063,1.906,1.9104,1.9104,1.9104,0,0,1.823,1.8282,1.8311,1.8362,1.844,1.8495,1.8502,1.8593,1.8629,1.8682,1.8743,1.8785,1.8875,1.8928,1.8966,1.8956,1.9001,1.8972,1.8941,1.8966,1.8962,1.896,1.8959,1.8957,1.8973,1.8973,1.8972,0,1.8183,1.825,1.8321,1.8362,1.8401,1.8473,1.8505,1.8551,1.8643,1.8669,1.8687,1.8803,1.8859,1.8918,1.8916,1.8944,1.8956,1.8962,1.8957,1.8955,1.8954,1.8954,1.8953,1.8969,1.8969,1.897,1.897,0,1.8191,1.8237,1.8251,1.8338,1.8378,1.8414,1.8492,1.8525,1.8569,1.8622,1.8677,1.8747,1.8818,1.8836,1.8879,1.8902,1.891,1.8941,1.8972,1.8945,1.8947,1.8947,1.8963,1.8965,1.8966,1.8967,0,0,1.8109,1.8235,1.8239,1.8281,1.8373,1.8411,1.8451,1.852,1.8547,1.8608,1.8646,1.8721,1.8751,1.8794,1.8844,1.8865,1.8856,1.8894,1.8897,1.8887,1.8889,1.8867,1.8866,1.8886,1.8886,1.8886,1.8884,0,1.8093,1.8168,1.8233,1.8284,1.833,1.8399,1.8435,1.8496,1.8548,1.8595,1.8652,1.8705,1.8739,1.8766,1.879,1.8852,1.8858,1.8853,1.8923,1.8925,1.8904,1.8866,1.8842,1.8837,1.8885,1.8885,1.8885,0,1.8084,1.8143,1.8198,1.8288,1.8309,1.8339,1.8409,1.8453,1.8524,1.8561,1.861,1.8662,1.871,1.8735,1.8804,1.8798,1.8831,1.8866,1.8868,1.8878,1.8904,1.8878,1.8836,1.8836,1.8886,1.8886,1.8886,0,1.8022,1.8114,1.816,1.8193,1.8298,1.8318,1.8363,1.8436,1.8474,1.8535,1.8561,1.8627,1.8664,1.8714,1.8784,1.8795,1.8846,1.8876,1.888,1.8878,1.8888,1.8887,1.8853,1.8906,1.8906,1.8906,1.8906,0,1.7998,1.803,1.8134,1.8162,1.8201,1.8277,1.8313,1.8365,1.8429,1.847,1.8534,1.8572,1.8661,1.871,1.8764,1.8814,1.883,1.8862,1.8877,1.8857,1.8853,1.8881,1.8884,1.8906,1.8906,1.8906,1.8906,0,1.7936,1.8006,1.8061,1.8156,1.8181,1.8205,1.8288,1.8319,1.8374,1.8426,1.8442,1.853,1.8591,1.8665,1.8749,1.8787,1.8832,1.8853,1.8807,1.8816,1.8816,1.8816,1.8801,1.8804,1.8851,1.8851,1.885,0,1.7917,1.7943,1.8041,1.8073,1.8116,1.8166,1.8205,1.8281,1.832,1.8405,1.8426,1.8492,1.8549,1.8643,1.8715,1.8781,1.8805,1.8796,1.8816,1.8796,1.8808,1.8806,1.8811,1.8791,1.879,1.8789,1.8788,0,1.7877,1.7911,1.7964,1.803,1.8075,1.8131,1.819,1.8213,1.8301,1.8342,1.8405,1.8449,1.8536,1.8601,1.8676,1.8725,1.8772,1.8781,1.8786,1.8768,1.8741,1.8758,1.8795,1.8782,1.8782,1.8783,1.8783,1.8783,1.7837,1.7865,1.7938,1.7997,1.8049,1.8103,1.8138,1.8197,1.8251,1.8327,1.8369,1.8432,1.8505,1.8611,1.8658,1.8709,1.8726,1.8732,1.8734,1.8735,1.873,1.8731,1.8723,1.8723,1.8723,1.8724,1.8724,0,1.7803,1.7854,1.7906,1.7987,1.8033,1.8072,1.814,1.8177,1.823,1.8295,1.8349,1.8423,1.8487,1.8564,1.8634,1.866,1.8684,1.8676,1.8676,1.8687,1.871,1.87,1.8656,1.8656,1.8656,1.8656,1.8656,1.8656,1.779,1.784,1.7882,1.7959,1.8011,1.8072,1.8107,1.8158,1.821,1.8289,1.8343,1.8392,1.8463,1.8538,1.86,1.8621,1.8645,1.8631,1.8658,1.8679,1.8685,1.8691,1.8682,1.8635,1.8635,1.8632,1.8632,1.8632]}]]